TimeMDT,TemperatureF,Dew PointF,Humidity,Sea Level PressureIn,VisibilityMPH,Wind Direction,Wind SpeedMPH,Gust SpeedMPH,PrecipitationIn,Events,Conditions,WindDirDegrees,DateUTC
12:51 AM,60.1,53.1,78,29.85,10.0,Calm,Calm,-,N/A,,Clear,0,2013-07-22 06:51:00
1:51 AM,57.0,51.1,81,29.85,10.0,Calm,Calm,-,N/A,,Clear,0,2013-07-22 07:51:00
2:51 AM,57.0,51.1,81,29.86,10.0,Calm,Calm,-,N/A,,Clear,0,2013-07-22 08:51:00
3:51 AM,55.0,50.0,83,29.85,10.0,Calm,Calm,-,N/A,,Clear,0,2013-07-22 09:51:00
4:51 AM,53.1,48.9,86,29.87,10.0,Calm,Calm,-,N/A,,Clear,0,2013-07-22 10:51:00
5:51 AM,51.1,46.9,86,29.89,10.0,Calm,Calm,-,N/A,,Clear,0,2013-07-22 11:51:00
6:51 AM,57.9,52.0,81,29.89,10.0,Calm,Calm,-,N/A,,Clear,0,2013-07-22 12:51:00
7:51 AM,64.0,53.1,67,29.90,10.0,East,5.8,-,N/A,,Clear,80,2013-07-22 13:51:00
8:51 AM,68.0,53.1,59,29.91,10.0,NE,6.9,-,N/A,,Clear,50,2013-07-22 14:51:00
9:51 AM,71.1,52.0,51,29.90,10.0,NE,6.9,-,N/A,,Clear,40,2013-07-22 15:51:00
10:51 AM,73.0,53.1,49,29.90,10.0,East,6.9,-,N/A,,Clear,80,2013-07-22 16:51:00
11:51 AM,75.9,53.1,45,29.90,10.0,ENE,6.9,-,N/A,,Clear,60,2013-07-22 17:51:00
12:51 PM,78.1,53.1,42,29.89,10.0,East,6.9,-,N/A,,Clear,80,2013-07-22 18:51:00
1:51 PM,79.0,53.1,40,29.89,10.0,East,10.4,19.6,N/A,,Clear,100,2013-07-22 19:51:00
2:51 PM,81.0,53.1,38,29.87,10.0,East,9.2,16.1,N/A,,Clear,80,2013-07-22 20:51:00
3:51 PM,82.0,52.0,35,29.86,10.0,SE,11.5,19.6,N/A,,Clear,130,2013-07-22 21:51:00
4:51 PM,82.0,52.0,35,29.84,10.0,East,15.0,21.9,N/A,,Clear,100,2013-07-22 22:51:00
5:51 PM,80.1,53.1,39,29.84,10.0,East,20.7,25.3,N/A,,Clear,80,2013-07-22 23:51:00
6:51 PM,78.1,52.0,40,29.84,10.0,East,17.3,-,N/A,,Clear,100,2013-07-23 00:51:00
7:51 PM,75.0,52.0,44,29.83,10.0,East,18.4,-,N/A,,Clear,100,2013-07-23 01:51:00
8:35 PM,73.4,51.8,47,29.91,10.0,East,15.0,-,N/A,Thunderstorm,Thunderstorm,90,2013-07-23 02:35:00
8:51 PM,69.1,55.0,61,29.89,7.0,NE,16.1,-,0.04,Rain-Thunderstorm,Thunderstorms and Rain,50,2013-07-23 02:51:00
9:27 PM,66.2,57.2,73,30.05,10.0,NNW,13.8,28.8,0.11,Rain-Thunderstorm,Light Thunderstorms and Rain,340,2013-07-23 03:27:00
9:51 PM,63.0,55.0,75,29.95,10.0,ENE,21.9,26.5,0.19,Rain-Thunderstorm,Light Thunderstorms and Rain,60,2013-07-23 03:51:00
10:02 PM,62.6,55.4,77,29.95,10.0,East,20.7,-,0.00,Rain,Light Rain,100,2013-07-23 04:02:00
10:51 PM,62.1,54.0,75,29.88,10.0,ESE,21.9,28.8,0.00,,Partly Cloudy,120,2013-07-23 04:51:00
11:51 PM,62.1,53.1,72,29.90,10.0,SE,17.3,23.0,0.00,,Partly Cloudy,140,2013-07-23 05:51:00